sat.trackr.live / text

‹ back to catalog

HULIANWANG JISHU SHIYAN*

NORAD 57289 · 2023-095B

PAYLOAD ACTIVE UNKNOWN

§ Identity

Operator
Country
PRC
Launch date
2023-07-09
Launch site
JSC
Launch vehicle
Mass (kg)
RCS (m²)

External: N2YO · Heavens-Above · Gunter

§ Orbital elements

Epoch: 2026-05-25T04:01:15.350592Z

Period
107.50 min
Inclination
86.5048°
Eccentricity
0.0014525
Mean motion
13.39549363 rev/d
Perigee alt
1,100.1 km
Apogee alt
1,121.8 km
Semi-major
7,489.1 km
B*
3.7537e-5
RAAN
12.7527°
Arg perigee
251.6278°
Mean anomaly
108.3285°
Rev number
14,067

§ Raw data

HULIANWANG JISHU SHIYAN*1 57289U 23095B   26145.16753878  .00000035  00000+0  37537-4 0  99992 57289  86.5048  12.7527 0014525 251.6278 108.3285 13.39549363140677

JSON: /api/v1/satellites/57289 · /tle

For live sub-satellite position, see the globe view (requires WebGL).

§ Visibility from observer

Set your observer location to see the next 7 days of passes ≥ 10°. The values pass through the URL so the page stays shareable.

No JS? Fill the form by hand. The geolocation button needs JavaScript.